SCOUT G-1 R/B, 17071

Orbit data source: Space-Track

SCOUT G-1 R/B, 17071 is space debris in LEO originally from a launch on Fri, 14 Nov 1986 UTC launched from the Air Force Western Test Range (AFWTR). Debris objects in space refer to the collection of defunct objects orbiting the Earth. Examples of debris include non-operational satellites, rocket bodies, and fragments generated from explosions, collisions, or faulty payload assembly.

Loading next visibility...
Identifier
17071, 1986-088B
Orbit
LEO
Country
Flag of USUS
Related business
Manufacturer
Thiokol/TE
Mission
Spacecraft
Bus & Motor
STAR 20, Unknown motor
Mass
31 kg wet, 31 kg dry
Launch date (UTC)
1986-11-14 (40 years ago)
Launch vehicle
Unknown
Launch site
Air Force Western Test Range (AFWTR)
Object type
Payload
Rocket body
Debris
Shape & HBR
Cyl, 0.8 m
Radar Cross Section
0.687 m², Medium (>0.1 m² and < 1m²)

Expand to show TLE details & history
Last TLE update: 2 days ago

TLE from 2 days ago
0 SCOUT G-1 R/B
1 17071U 86088B   26171.45076644  .00000085  00000-0  76143-4 0  9997
2 17071  89.6043 167.4639 0036585 245.7163 114.0180 13.75630917986177
Epoch: 2026-06-20T10:49Z
TLE epoch observation values (Epoch: 2026-06-20T10:49:06.220Z)
Latitude
0.00006°
Longitude
96.52278°
Altitude
993.455 km
Speed
7.349 km/s
True Right ascension
11h 09m 51s
True Declination
0° 00' 00"
Sunlit
Object was in daylight at epoch
Visualization orbit readout
Latitude
Unknown
Longitude
Unknown
Altitude
Unknown
Speed
Unknown
Apparent Right ascension
Unknown
Apparent Declination
Unknown
Sunlit
N/A
Visualization observer readout
Local Sidereal Time
02:19:20
Azimuth
Unknown
Elevation
Unknown
Doppler factor
Unknown
Orbital elements
Apogee altitude
1,003.344 km
Perigee altitude
949.53 km
Semi-major axis
7,354.574 km
Eccentricity
0.00366
Inclination
89.6043°
RAAN
167.4639°
Arg. of periapsis
245.7163°
True anomaly
114.40022°
Mean anomaly
114.018°
Eccentric anomaly
114.20918°
Mean motion
3.44118 °/min
Orbital period
104.62 mins
BSTAR
0.000076143
Loading maneuver chart data...
Computing Atmospheric mass density...
Loading historical data...
Loading historical data...
Loading historical data...
Loading historical data...
Loading historical data...
Loading historical data...
Loading historical data...
Other satellites on launch #88 in the year 1986 (1986-11-14 UTC)

Documentation

Showing up to 5 results
|